DL1VED Weather Reports


Display with metric or nautical units.
time (UTC)temp
F
wind
direction
speed
MPH
gust
MPH
rain 1hr
in
rain 24hr
in
rain mn
in
humidity
%
barometer
mb
20260507001406 49 320 0.0 0.0 0.00 0.05 0.00 81 1010.2
20260506235906 49 320 0.0 0.0 0.00 0.05 0.00 81 1010.1
20260506234406 49 320 0.0 0.0 0.00 0.05 0.00 80 1010.2
20260506232906 49 320 0.0 0.0 0.00 0.10 0.00 80 1010.2
20260506231406 50 320 0.0 0.0 0.00 0.10 0.00 80 1010.1
20260506225906 49 320 0.0 0.0 0.00 0.10 0.00 80 1010.2
20260506224406 49 320 0.0 3.0 0.00 0.10 0.00 80 1010.1
20260506222906 49 315 0.0 2.0 0.00 0.10 0.00 80 1010.0
20260506221406 49 306 0.0 0.0 0.00 0.10 0.00 81 1009.8
20260506215906 49 300 0.0 4.0 0.00 0.10 0.00 80 1009.7
20260506214406 49 322 0.0 2.0 0.00 0.10 0.00 80 1009.5
20260506212906 49 54 0.0 0.0 0.00 0.12 0.00 81 1009.4
20260506211406 49 317 0.0 3.0 0.00 0.12 0.00 81 1009.3
20260506205906 50 111 0.0 2.0 0.00 0.12 0.00 81 1009.2
20260506204406 50 46 0.0 0.0 0.00 0.12 0.00 81 1009.2
20260506202906 50 21 1.0 2.0 0.00 0.29 0.00 82 1009.2
20260506201406 50 74 0.0 0.0 0.00 0.29 0.00 82 1009.0
20260506195906 50 12 1.0 4.0 0.00 0.29 0.00 82 1008.9
20260506194406 50 331 3.0 4.0 0.00 0.29 0.00 82 1008.7
20260506192906 50 23 0.0 3.0 0.00 0.32 0.00 82 1008.6
20260506191406 50 329 0.0 5.0 0.00 0.32 0.00 82 1008.3
20260506185906 50 28 0.0 5.0 0.00 0.32 0.00 82 1008.1
20260506184406 50 11 3.0 8.0 0.00 0.32 0.00 81 1007.9
20260506182906 51 45 1.0 6.0 0.00 0.33 0.00 81 1007.8
20260506181406 51 343 4.0 7.0 0.00 0.33 0.00 80 1007.7
20260506175906 51 358 3.0 9.0 0.00 0.33 0.00 80 1007.6
20260506174406 52 11 4.0 8.0 0.00 0.33 0.00 100 1007.4
20260506172906 52 326 2.0 7.0 0.00 0.33 0.00 79 1007.4
20260506171406 53 26 0.0 5.0 0.00 0.33 0.00 79 1007.2
20260506165906 53 337 0.0 5.0 0.00 0.33 0.00 82 1007.1
20260506164406 52 327 3.0 6.0 0.00 0.33 0.00 82 1007.2
20260506162906 52 1 2.0 5.0 0.00 0.34 0.00 82 1007.3
20260506161406 53 330 6.0 7.0 0.00 0.34 0.00 80 1007.2
20260506155906 53 338 3.0 8.0 0.00 0.34 0.00 80 1007.1
20260506154406 54 310 0.0 2.0 0.00 0.34 0.00 79 1007.1
20260506152906 54 316 1.0 5.0 0.00 0.35 0.00 79 1007.0
20260506151406 54 8 3.0 7.0 0.00 0.35 0.00 79 1006.8
20260506145906 54 355 1.0 5.0 0.00 0.35 0.00 79 1006.7
20260506144406 54 347 2.0 6.0 0.00 0.35 0.00 79 1006.5
20260506142906 55 1 4.0 7.0 0.00 0.36 0.00 78 1006.4
20260506141406 54 15 2.0 6.0 0.00 0.36 0.00 78 1006.4
20260506135906 55 327 4.0 6.0 0.00 0.36 0.00 78 1006.4
20260506134406 55 348 3.0 5.0 0.00 0.36 0.00 77 1006.4
20260506132906 55 333 1.0 5.0 0.00 0.41 0.00 78 1006.4
20260506131406 56 358 3.0 7.0 0.00 0.41 0.00 76 1006.2
20260506125906 57 319 5.0 6.0 0.00 0.41 0.00 74 1006.1
20260506124406 57 340 3.0 7.0 0.00 0.41 0.00 75 1005.9
20260506122906 58 307 4.0 5.0 0.00 0.42 0.00 74 1005.8
20260506121406 57 327 3.0 4.0 0.00 0.42 0.00 75 1005.8
20260506115906 57 11 4.0 6.0 0.00 0.42 0.00 76 1005.7
20260506114406 57 7 4.0 6.0 0.00 0.42 0.00 76 1005.5
20260506112906 58 40 4.0 4.0 0.00 0.42 0.00 77 1005.5
20260506111406 59 293 0.0 6.0 0.00 0.42 0.00 76 1005.5
20260506105906 58 345 5.0 5.0 0.00 0.42 0.42 76 1005.5
20260506104406 58 323 2.0 5.0 0.00 0.42 0.42 76 1005.4
20260506102906 59 291 4.0 6.0 0.00 0.42 0.42 74 1005.4
20260506101406 57 305 0.0 3.0 0.00 0.42 0.42 80 1005.4
20260506095907 58 288 0.0 2.0 0.00 0.42 0.42 79 1005.2
20260506094406 57 320 2.0 3.0 0.00 0.42 0.42 82 1005.1
20260506092906 57 341 2.0 6.0 0.00 0.42 0.42 83 1005.1
20260506091407 57 306 0.0 5.0 0.00 0.42 0.42 82 1005.1
20260506085907 57 326 2.0 2.0 0.00 0.42 0.42 81 1004.8
20260506084407 56 292 2.0 7.0 0.00 0.42 0.42 83 1004.7
20260506082907 56 277 5.0 8.0 0.00 0.42 0.42 83 1004.6
20260506081407 55 303 0.0 5.0 0.00 0.42 0.42 87 1004.5
20260506072907 54 250 5.0 6.0 0.00 0.42 0.42 89 1004.7
20260506071407 53 264 5.0 6.0 0.00 0.42 0.42 89 1004.6
20260506061407 53 236 6.0 9.0 0.00 0.42 0.42 88 1004.2
20260506051407 54 217 3.0 7.0 0.00 0.42 0.42 88 1004.1
20260506044407 54 244 2.0 4.0 0.00 0.42 0.42 87 1004.2
20260506042907 54 223 0.0 0.0 0.00 0.42 0.42 87 1004.3
20260506041407 54 282 0.0 0.0 0.00 0.42 0.42 87 1004.4
20260506035907 54 282 0.0 2.0 0.00 0.42 0.42 88 1004.4
20260506034407 54 281 0.0 0.0 0.00 0.42 0.42 87 1004.6
20260506032907 54 219 0.0 1.0 0.00 0.42 0.42 88 1004.7
20260506031407 54 246 4.0 6.0 0.00 0.42 0.42 88 1004.7
20260506025907 54 268 2.0 5.0 0.00 0.42 0.42 88 1004.7
20260506024407 54 257 3.0 7.0 0.00 0.42 0.42 88 1004.7
20260506022907 54 236 1.0 6.0 0.00 0.42 0.42 88 1004.7
20260506021407 54 275 2.0 5.0 0.00 0.42 0.42 88 1004.6
20260506015907 54 265 4.0 7.0 0.00 0.42 0.42 87 1004.8
20260506014407 55 299 3.0 5.0 0.03 0.42 0.42 88 1004.9
20260506012907 55 293 2.0 6.0 0.05 0.42 0.42 88 1004.9
20260506011407 55 172 0.0 8.0 0.10 0.42 0.42 89 1005.1
20260506005907 55 237 4.0 6.0 0.10 0.42 0.42 88 1005.1
20260506004407 56 255 0.0 0.0 0.07 0.39 0.39 87 1005.2
20260506002907 56 293 0.0 4.0 0.05 0.37 0.37 87 1005.3